15min,AgWx,beryljct,423,19JAN2021:00:00:00,20.5,12.75,18.8,19.0,18.7,19.8,18.1,83,85,81,0.300,14.5,15.3,13.8,3.201,3.9,330,9.4,5.3,-0.00003,-0.00003,30.7,32.7,8,0,0,.,6.20,0.00,0.00
15min,AgWx,beryljct,423,19JAN2021:00:15:00,20.0,12.73,18.7,18.3,18.9,19.4,18.3,84,85,82,0.284,14.8,15.5,13.8,3.091,2.9,333,16,4.5,-0.00005,-0.00006,30.6,32.7,9,0,0,.,6.20,0.00,0.00
15min,AgWx,beryljct,423,19JAN2021:00:30:00,19.6,12.73,19.7,19.3,19.1,19.4,18.3,83,84,82,0.295,14.8,15.2,13.9,1.513,2.9,325,7.2,4.4,-0.00005,-0.00005,30.5,32.7,9,0,0,.,6.20,0.00,0.00
15min,AgWx,beryljct,423,19JAN2021:00:45:00,19.1,12.73,19.5,19.1,19.0,19.3,18.7,82,83,82,0.296,14.5,14.8,14.1,0,0.1,330,0.0,1.2,-0.00015,-0.00023,30.4,32.7,9,0,0,.,6.21,0.00,0.00
15min,AgWx,beryljct,423,19JAN2021:01:00:00,18.5,12.72,19.7,19.0,18.9,19.3,18.6,82,83,81,0.293,14.3,14.7,13.7,0.614,0.0,35,24,0.9,-0.00015,-0.00024,30.3,32.7,9,0,0,.,6.20,0.00,0.00
15min,AgWx,beryljct,423,19JAN2021:01:15:00,18.3,12.71,18.9,18.7,19.1,19.4,18.7,81,83,80,0.284,14.2,14.7,13.7,4.341,2.3,75,10,4.8,-0.00006,-0.00007,30.1,32.7,8,0,0,.,6.20,0.00,0.00
15min,AgWx,beryljct,423,19JAN2021:01:30:00,18.5,12.71,19.5,18.7,18.5,18.7,18.1,81,82,80,0.283,13.7,14.0,13.3,1.863,2.9,76,8.4,4.5,-0.00004,-0.00005,30.0,32.7,8,0,0,.,6.20,0.00,0.00
15min,AgWx,beryljct,423,19JAN2021:01:45:00,18.6,12.7,20.5,19.6,19.1,19.6,18.6,80,81,79,0.291,14.0,14.5,13.5,1.052,0.6,95,15,2.3,-0.00012,-0.00017,29.8,32.7,8,0,0,.,6.20,0.00,0.00
15min,AgWx,beryljct,423,19JAN2021:02:00:00,18.8,12.67,19.9,19.1,19.4,20.0,18.3,80,82,79,0.292,14.1,14.6,13.1,0,0.5,129,21,2.6,-0.00013,-0.00018,29.7,32.7,9,0,0,.,6.21,0.00,0.00
15min,AgWx,beryljct,423,19JAN2021:02:15:00,19.2,12.68,20.9,20.4,20.2,20.6,19.1,80,82,79,0.304,15.1,15.4,14.5,1.535,1.2,120,19,3.0,-0.00010,-0.00013,29.6,32.6,8,0,0,.,6.21,0.00,0.00
15min,AgWx,beryljct,423,19JAN2021:02:30:00,20.0,12.68,22.0,21.4,21.1,21.4,20.4,81,81,81,0.319,16.2,16.5,15.4,2.674,1.6,140,8.8,4.0,-0.00008,-0.00011,29.4,32.6,8,0,0,.,6.21,0.00,0.00
15min,AgWx,beryljct,423,19JAN2021:02:45:00,20.9,12.67,22.7,21.9,21.8,22.0,21.5,81,82,81,0.328,16.9,17.2,16.5,1.863,2.1,133,11,4.3,-0.00007,-0.00008,29.3,32.6,8,0,0,.,6.21,0.00,0.00
15min,AgWx,beryljct,423,19JAN2021:03:00:00,21.6,12.66,22.0,21.8,21.9,22.1,21.7,82,83,81,0.331,17.2,17.4,17.0,2.696,1.9,172,26,3.7,-0.00008,-0.00009,29.2,32.6,9,0,0,.,6.21,0.00,0.00
15min,AgWx,beryljct,423,19JAN2021:03:15:00,21.9,12.65,22.9,22.3,21.7,22.4,21.4,83,84,81,0.332,17.3,17.6,17.0,0.899,2.4,188,15,3.8,-0.00006,-0.00007,29.1,32.6,8,0,0,.,6.21,0.00,0.00
15min,AgWx,beryljct,423,19JAN2021:03:30:00,22.1,12.65,22.3,21.8,22.3,22.7,21.7,81,82,80,0.327,17.4,17.7,16.8,1.315,1.5,128,12,2.5,-0.00009,-0.00011,29.0,32.5,8,0,0,.,6.21,0.00,0.00
15min,AgWx,beryljct,423,19JAN2021:03:45:00,22.1,12.63,22.2,22.2,22.4,22.6,21.9,81,83,81,0.331,17.5,17.8,17.2,3.727,2.7,101,10,4.5,-0.00006,-0.00006,28.9,32.5,8,0,0,.,6.21,0.00,0.00
15min,AgWx,beryljct,423,19JAN2021:04:00:00,22.1,12.63,22.7,22.0,22.0,22.3,21.8,82,83,81,0.334,17.4,17.6,17.1,2.959,3.4,87,5.5,4.8,-0.00004,-0.00004,28.9,32.5,8,0,0,.,6.21,0.00,0.00
15min,AgWx,beryljct,423,19JAN2021:04:15:00,22.3,12.61,23.1,22.5,22.3,22.5,22.1,82,83,82,0.337,17.7,17.9,17.6,1.184,2.1,62,18,3.3,-0.00007,-0.00008,28.8,32.4,8,0,0,.,6.21,0.00,0.00
15min,AgWx,beryljct,423,19JAN2021:04:30:00,22.6,12.61,23.1,22.6,22.9,23.2,22.5,80,82,79,0.331,17.7,17.9,17.3,5.042,2.9,0.7,11,5.0,-0.00005,-0.00005,28.7,32.4,8,0,0,.,6.21,0.00,0.00
15min,AgWx,beryljct,423,19JAN2021:04:45:00,22.8,12.6,24.1,23.5,23.1,23.7,22.4,79,81,78,0.335,17.7,17.9,17.3,4.472,4.8,1.6,9.5,6.7,-0.00001,-0.00000,28.7,32.4,8,0,0,.,6.21,0.00,0.00
15min,AgWx,beryljct,423,19JAN2021:05:00:00,23.1,12.59,23.7,23.1,23.6,24.2,23.1,78,79,76,0.335,17.7,18.0,17.3,5.524,4.1,17,11,5.5,-0.00002,-0.00001,28.6,32.3,8,0,0,.,6.21,0.00,0.00
15min,AgWx,beryljct,423,19JAN2021:05:15:00,23.5,12.56,23.9,23.6,23.5,23.8,23.1,79,79,78,0.341,17.8,18.0,17.6,4.494,4.5,13,11,6.2,-0.00001,-0.00000,28.5,32.3,8,0,0,.,6.21,0.00,0.00
15min,AgWx,beryljct,423,19JAN2021:05:30:00,23.9,12.58,23.9,23.6,23.9,24.1,23.6,80,81,79,0.349,18.7,18.9,18.1,4.647,6.1,28,8.9,10.7,0.00001,0.00001,28.5,32.3,8,0,0,.,6.21,0.00,0.00
15min,AgWx,beryljct,423,19JAN2021:05:45:00,24.1,12.57,24.3,23.9,23.7,23.9,23.5,81,82,81,0.357,18.8,19.1,18.5,4.012,5.1,47,11,6.9,-0.00001,-0.00001,28.4,32.2,8,0,0,.,6.21,0.00,0.00
15min,AgWx,beryljct,423,19JAN2021:06:00:00,24.4,12.56,24.5,24.1,23.9,24.1,23.8,82,82,81,0.360,19.1,19.4,19.0,3.924,4.0,51,6.8,5.3,-0.00003,-0.00003,28.4,32.2,8,0,0,.,6.21,0.00,0.00
15min,AgWx,beryljct,423,19JAN2021:06:15:00,24.7,12.55,24.6,24.4,24.1,24.4,23.9,82,82,81,0.363,19.3,19.6,19.1,3.595,3.6,45,10,5.2,-0.00004,-0.00004,28.3,32.2,8,0,0,.,6.21,0.00,0.00
15min,AgWx,beryljct,423,19JAN2021:06:30:00,24.9,12.54,24.8,24.3,24.3,24.4,24.1,82,82,81,0.363,19.4,19.6,19.3,3.354,3.1,39,12,4.3,-0.00005,-0.00005,28.3,32.1,9,0,0,.,6.21,0.00,0.00
15min,AgWx,beryljct,423,19JAN2021:06:45:00,25.0,12.54,24.7,24.3,24.2,24.4,24.2,82,83,81,0.367,19.4,19.7,19.3,2.411,2.2,55,8.3,3.4,-0.00007,-0.00008,28.3,32.1,8,0,0,.,6.21,0.00,0.00
15min,AgWx,beryljct,423,19JAN2021:07:00:00,25.0,12.53,23.9,24.0,24.1,24.4,23.9,83,84,83,0.369,19.8,20.0,19.7,1.25,2.7,71,14,4.0,-0.00006,-0.00007,28.3,32.1,8,0,0,.,6.21,0.00,0.00
15min,AgWx,beryljct,423,19JAN2021:07:15:00,24.7,12.54,24.5,23.9,24.0,24.2,23.8,83,84,83,0.365,19.7,20.0,19.3,3.025,2.0,82,12,4.2,0.00005,0.00008,28.3,32.0,8,0,0,.,6.21,0.00,0.00
15min,AgWx,beryljct,423,19JAN2021:07:30:00,24.4,12.54,24.1,23.7,23.9,24.2,23.7,83,84,83,0.363,19.6,19.9,19.4,1.228,2.4,54,14,3.4,0.00006,0.00010,28.2,32.0,8,0,0,.,6.21,0.00,0.00
15min,AgWx,beryljct,423,19JAN2021:07:45:00,24.4,12.53,24.8,24.2,23.8,24.3,23.5,84,85,84,0.373,19.7,20.3,19.5,4.187,2.4,35,22,5.5,0.00006,0.00009,28.2,32.0,8,1,0,.,6.21,0.00,0.00
15min,AgWx,beryljct,423,19JAN2021:08:00:00,24.7,12.52,25.6,25.1,25.0,25.3,24.2,80,84,79,0.364,19.8,20.1,19.5,8.92,7.0,43,16,11.4,0.00016,0.00028,28.2,32.0,8,4,0,.,6.21,0.00,0.00
15min,AgWx,beryljct,423,19JAN2021:08:15:00,25.4,12.54,26.0,25.5,25.3,25.6,25.1,79,79,78,0.364,19.6,19.7,19.5,6.248,7.9,48,8.3,10.4,0.00021,0.00035,28.2,31.9,8,9,0,.,6.21,0.00,0.00
15min,AgWx,beryljct,423,19JAN2021:08:30:00,25.9,12.54,25.1,24.7,25.2,25.7,24.7,79,82,77,0.373,19.7,20.1,19.4,3.705,5.8,81,21,11.4,0.00019,0.00030,28.1,31.9,8,16,0,.,6.21,0.00,0.00
15min,AgWx,beryljct,423,19JAN2021:08:45:00,26.2,12.63,25.5,25.1,24.9,25.3,24.6,83,83,82,0.379,20.4,20.6,20.0,3.595,3.7,80,17,8.0,0.00025,0.00032,28.1,31.8,8,52,0,.,6.21,0.00,0.00
15min,AgWx,beryljct,423,19JAN2021:09:00:00,26.7,12.81,26.0,25.6,25.2,25.7,25.0,83,84,82,0.390,20.9,21.4,20.5,5.853,4.1,86,13,6.3,0.00042,0.00051,28.1,31.8,8,130,0,.,6.21,0.00,0.00
15min,AgWx,beryljct,423,19JAN2021:09:15:00,27.3,14.81,26.5,26.0,25.7,26.0,25.5,83,84,82,0.394,21.3,21.6,21.0,3.551,4.7,77,14,7.0,0.00051,0.00061,28.1,31.8,8,166,0,.,6.21,0.00,0.00
15min,AgWx,beryljct,423,19JAN2021:09:30:00,28.3,14.83,27.7,27.1,26.4,27.1,25.8,80,83,76,0.382,21.0,22.0,20.3,4.319,4.2,74,12,6.8,0.00073,0.00085,28.2,31.8,9,248,0,.,6.21,0.00,0.00
15min,AgWx,beryljct,423,19JAN2021:09:45:00,30.0,14.76,28.1,27.9,27.6,28.2,27.1,73,77,70,0.363,20.0,21.1,19.2,3.551,4.1,71,14,6.6,0.00086,0.00101,28.2,31.7,8,270,0,.,6.21,0.00,0.00
15min,AgWx,beryljct,423,19JAN2021:10:00:00,31.7,14.75,30.2,28.9,28.5,29.1,27.9,68,71,66,0.353,19.4,20.3,18.8,3.486,3.9,64,18,7.1,0.00104,0.00122,28.2,31.7,9,319,0,.,6.21,0.00,0.00
15min,AgWx,beryljct,423,19JAN2021:10:15:00,33.5,14.79,32.6,31.8,30.8,32.2,29.1,62,67,55,0.337,19.2,20.3,17.6,13.59,8.3,48,24,17.4,0.00126,0.00160,28.3,31.7,8,362,0,.,6.21,0.00,0.00
15min,AgWx,beryljct,423,19JAN2021:10:30:00,34.9,14.7,32.7,32.9,32.7,33.3,31.9,54,57,52,0.330,18.1,19.0,17.2,14.53,12.1,27,11,17.4,0.00147,0.00199,28.3,31.7,9,383,0,.,6.21,0.00,0.00
15min,AgWx,beryljct,423,19JAN2021:10:45:00,36.0,14.66,33.9,34.1,33.6,34.1,32.9,50,53,48,0.323,17.0,18.0,16.3,13.59,12.4,23,13,17.0,0.00163,0.00222,28.4,31.6,8,411,0,.,6.20,0.00,0.00
15min,AgWx,beryljct,423,19JAN2021:11:00:00,37.0,14.66,35.3,35.0,34.4,35.2,33.6,47,48,45,0.313,16.0,16.9,15.2,9.32,12.7,22,13,17.3,0.00180,0.00245,28.5,31.6,9,444,0,.,6.20,0.00,0.00
15min,AgWx,beryljct,423,19JAN2021:11:15:00,38.0,14.62,36.7,36.0,35.7,36.2,35.0,39,45,37,0.265,13.1,16.8,11.9,18,16.8,46,12,23.2,0.00203,0.00289,28.5,31.6,8,442,0,.,6.20,0.00,0.00
15min,AgWx,beryljct,423,19JAN2021:11:30:00,38.8,14.28,38.0,36.6,36.4,37.0,36.0,37,38,36,0.272,12.5,13.5,11.8,11.62,16.9,52,9.7,21.4,0.00213,0.00306,28.6,31.6,8,453,0,.,6.20,0.00,0.00
15min,AgWx,beryljct,423,19JAN2021:11:45:00,39.4,14.19,37.7,37.0,36.8,37.8,36.1,36,37,35,0.258,12.2,13.3,11.4,19.66,18.3,49,9.9,24.2,0.00223,0.00320,28.7,31.6,8,477,0,.,6.20,0.00,0.00
15min,AgWx,beryljct,423,19JAN2021:12:00:00,40.1,14.29,38.2,37.4,37.7,39.0,37.0,34,35,33,0.257,12.0,13.2,11.1,18.35,18.3,47,9.0,24.1,0.00241,0.00345,28.8,31.5,8,526,0,.,6.20,0.00,0.00
15min,AgWx,beryljct,423,19JAN2021:12:15:00,40.2,14.21,37.1,37.1,37.1,38.2,36.4,34,35,33,0.258,11.4,12.5,10.8,19.86,18.6,42,9.1,24.6,0.00206,0.00307,29.0,31.5,8,349,0,.,6.20,0.00,0.00
15min,AgWx,beryljct,423,19JAN2021:12:30:00,39.7,14.25,38.2,38.4,37.0,38.7,36.2,34,35,32,0.253,11.2,12.0,10.7,19.2,18.4,41,8.1,23.2,0.00211,0.00312,29.1,31.5,8,385,0,.,6.19,0.00,0.00
15min,AgWx,beryljct,423,19JAN2021:12:45:00,40.5,14.17,40.1,39.5,39.0,39.9,38.2,32,33,31,0.261,11.5,12.6,10.7,15.94,17.8,39,11,23.4,0.00262,0.00373,29.2,31.5,8,567,0,.,6.19,0.00,0.00
15min,AgWx,beryljct,423,19JAN2021:13:00:00,41.5,14.14,40.5,40.1,39.7,40.5,39.2,31,32,30,0.260,11.6,12.9,10.7,14.14,17.0,39,11,21.0,0.00265,0.00376,29.3,31.5,8,557,0,.,6.18,0.00,0.00
15min,AgWx,beryljct,423,19JAN2021:13:15:00,42.2,14.13,39.7,39.5,39.7,40.6,39.1,31,32,30,0.252,11.4,12.3,10.8,16.92,17.6,46,8.9,24.2,0.00264,0.00377,29.4,31.5,8,550,0,.,6.18,0.00,0.00
15min,AgWx,beryljct,423,19JAN2021:13:30:00,42.7,14.12,39.6,40.1,39.9,40.6,39.5,31,32,30,0.261,11.7,12.5,11.1,20.08,16.5,49,10,21.3,0.00262,0.00372,29.5,31.5,9,545,0,.,6.18,0.00,0.00
15min,AgWx,beryljct,423,19JAN2021:13:45:00,43.2,14.1,40.0,40.6,40.5,41.5,39.6,31,31,30,0.266,11.8,12.6,11.0,18.22,16.4,46,9.9,21.8,0.00263,0.00375,29.6,31.5,8,532,0,.,6.18,0.00,0.00
15min,AgWx,beryljct,423,19JAN2021:14:00:00,43.6,14.11,42.0,41.9,40.7,41.9,39.8,30,31,30,0.274,12.0,13.0,11.3,12.96,15.7,46,11,20.9,0.00260,0.00370,29.7,31.5,8,520,0,.,6.18,0.00,0.00
15min,AgWx,beryljct,423,19JAN2021:14:15:00,44.1,14.08,41.3,40.8,41.0,42.0,40.4,30,31,30,0.261,12.3,13.0,11.8,13.64,15.7,44,11,20.3,0.00260,0.00371,29.9,31.5,8,513,0,.,6.18,0.00,0.00
15min,AgWx,beryljct,423,19JAN2021:14:30:00,44.6,14.08,41.8,41.2,41.2,41.9,40.7,30,31,30,0.263,12.2,12.9,11.8,16.75,15.9,37,11,21.3,0.00250,0.00362,30.0,31.5,8,472,0,.,6.17,0.00,0.00
15min,AgWx,beryljct,423,19JAN2021:14:45:00,44.9,14.07,41.3,41.3,41.4,41.9,40.9,30,30,30,0.266,12.3,12.8,11.8,16.18,16.8,36,11,21.6,0.00249,0.00365,30.1,31.5,8,457,0,.,6.18,0.00,0.00
15min,AgWx,beryljct,423,19JAN2021:15:00:00,45.1,14.13,41.1,40.7,41.2,41.9,40.5,30,31,30,0.266,12.4,13.0,11.9,17.27,17.1,43,10,23.0,0.00240,0.00355,30.3,31.5,8,431,0,.,6.18,0.00,0.00
15min,AgWx,beryljct,423,19JAN2021:15:15:00,45.3,14.04,41.5,41.6,41.5,42.4,40.7,30,31,30,0.270,12.6,13.4,12.2,18,15.2,45,9.3,21.3,0.00226,0.00335,30.5,31.6,9,397,0,.,6.17,0.00,0.00
15min,AgWx,beryljct,423,19JAN2021:15:30:00,45.4,14.05,42.0,41.2,41.2,41.6,41.0,30,30,30,0.266,12.2,12.7,11.9,14.86,16.6,38,9.0,21.5,0.00219,0.00332,30.7,31.6,8,360,0,.,6.17,0.00,0.00
15min,AgWx,beryljct,423,19JAN2021:15:45:00,45.3,14.04,41.6,41.0,41.3,41.6,41.0,30,30,30,0.261,12.2,12.7,11.9,13.64,16.6,49,9.5,20.7,0.00210,0.00322,31.0,31.6,9,329,0,.,6.18,0.00,0.00
15min,AgWx,beryljct,423,19JAN2021:16:00:00,45.2,14.04,41.4,41.1,41.1,41.3,40.8,30,30,30,0.261,12.0,12.3,11.6,14.89,14.7,50,9.0,19.2,0.00192,0.00296,31.2,31.6,8,294,0,.,6.17,0.00,0.00
15min,AgWx,beryljct,423,19JAN2021:16:15:00,44.9,14.07,40.7,40.3,40.6,41.1,40.0,30,31,30,0.261,11.9,12.2,11.6,18.35,15.0,53,9.3,19.5,0.00164,0.00266,31.5,31.6,9,213,0,.,6.17,0.00,0.00
15min,AgWx,beryljct,423,19JAN2021:16:30:00,44.5,14.1,40.1,39.9,40.2,40.6,39.8,31,32,31,0.263,12.0,12.3,11.8,15.45,16.2,53,9.0,19.9,0.00174,0.00279,31.8,31.7,8,235,0,.,6.17,0.00,0.00
15min,AgWx,beryljct,423,19JAN2021:16:45:00,44.0,14.09,39.4,39.3,39.6,40.0,39.2,32,32,31,0.262,11.9,12.1,11.6,14.71,16.0,55,8.0,21.1,0.00155,0.00256,32.1,31.7,9,186,0,.,6.17,0.00,0.00
15min,AgWx,beryljct,423,19JAN2021:17:00:00,43.3,14.15,38.6,38.2,38.8,39.3,38.2,33,33,32,0.260,11.8,12.0,11.7,16,14.7,50,9.7,19.1,0.00056,0.00063,32.2,31.7,8,128,0,.,6.18,0.00,0.00
15min,AgWx,beryljct,423,19JAN2021:17:15:00,42.2,14.18,37.3,37.5,37.9,38.2,37.5,33,34,33,0.256,11.6,11.8,11.5,8.86,13.5,50,8.3,20.2,0.00050,0.00057,32.4,31.8,8,89,0,.,6.18,0.00,0.00
15min,AgWx,beryljct,423,19JAN2021:17:30:00,40.9,13.13,36.5,36.6,37.0,37.5,36.4,34,35,34,0.255,11.4,11.6,11.2,8.62,11.4,54,9.1,16.9,0.00041,0.00048,32.5,31.8,8,36,0,.,6.17,0.00,0.00
15min,AgWx,beryljct,423,19JAN2021:17:45:00,39.2,13.05,34.8,34.9,35.7,36.5,34.9,36,36,35,0.250,11.2,11.4,11.0,7.695,9.8,55,8.0,13.2,0.00033,0.00040,32.6,31.8,8,9,0,.,6.18,0.00,0.00
15min,AgWx,beryljct,423,19JAN2021:18:00:00,37.3,13.01,33.5,33.6,34.2,34.9,33.5,37,38,37,0.248,10.8,11.1,10.5,4.801,6.5,60,7.4,9.4,0.00022,0.00028,32.6,31.9,9,3,0,.,6.17,0.00,0.00
15min,AgWx,beryljct,423,19JAN2021:18:15:00,35.6,12.97,31.6,31.7,32.6,33.5,31.6,39,41,38,0.245,10.5,10.9,10.2,4.889,5.1,76,9.0,7.2,0.00015,0.00020,32.6,32.0,8,0,0,.,6.18,0.00,0.00
15min,AgWx,beryljct,423,19JAN2021:18:30:00,34.0,12.96,30.3,30.4,31.1,31.7,30.4,41,42,41,0.241,10.3,10.6,10.0,3.968,4.6,100,6.4,6.7,0.00011,0.00016,32.6,32.0,9,0,0,.,6.18,0.00,0.00
15min,AgWx,beryljct,423,19JAN2021:18:45:00,32.6,12.95,29.6,29.8,30.1,30.7,29.8,43,44,42,0.241,10.3,10.5,10.0,5.437,5.5,101,8.4,7.5,0.00013,0.00018,32.5,32.0,9,0,0,.,6.18,0.00,0.00
15min,AgWx,beryljct,423,19JAN2021:19:00:00,31.5,12.93,29.6,28.9,29.6,30.1,28.8,44,45,43,0.244,10.3,10.6,10.0,5.634,5.1,111,9.4,6.6,0.00012,0.00016,32.4,32.1,9,0,0,.,6.18,0.00,0.00
15min,AgWx,beryljct,423,19JAN2021:19:15:00,30.4,12.92,26.9,26.7,27.2,29.1,26.5,47,49,45,0.240,9.8,10.4,9.2,4.801,5.0,144,9.5,5.9,0.00009,0.00013,32.3,32.1,9,0,0,.,6.18,0.00,0.00
15min,AgWx,beryljct,423,19JAN2021:19:30:00,29.3,12.91,28.9,27.5,27.1,28.1,26.4,48,50,47,0.246,10.2,10.9,9.3,5.59,4.9,160,14,6.8,0.00008,0.00012,32.1,32.1,9,0,0,.,6.18,0.00,0.00
15min,AgWx,beryljct,423,19JAN2021:19:45:00,28.9,12.91,29.3,29.1,28.4,29.1,27.7,48,48,47,0.257,11.0,11.6,10.4,3.047,4.6,158,16,6.0,0.00008,0.00012,32.0,32.2,9,0,0,.,6.18,0.00,0.00
15min,AgWx,beryljct,423,19JAN2021:20:00:00,29.1,12.89,28.5,28.4,28.9,29.3,28.3,48,49,47,0.259,11.8,12.1,11.5,3.727,3.8,126,13,5.1,0.00005,0.00008,32.0,32.2,9,0,0,.,6.18,0.00,0.00
15min,AgWx,beryljct,423,19JAN2021:20:15:00,29.0,12.88,26.7,27.1,27.5,28.4,27.0,50,51,49,0.254,11.4,11.8,11.1,3.31,4.6,157,11,6.0,0.00007,0.00010,31.9,32.3,9,0,0,.,6.18,0.00,0.00
15min,AgWx,beryljct,423,19JAN2021:20:30:00,28.3,12.88,26.1,25.7,26.3,26.9,25.2,52,54,51,0.253,11.1,11.3,10.3,2.609,3.3,147,7.2,4.1,0.00002,0.00004,31.9,32.3,9,0,0,.,6.19,0.00,0.00
15min,AgWx,beryljct,423,19JAN2021:20:45:00,27.4,12.86,26.4,25.7,25.9,26.4,25.3,53,54,52,0.250,11.0,11.3,10.5,3.003,2.5,162,13,3.3,-0.00002,-0.00002,31.8,32.3,9,0,0,.,6.18,0.00,0.00
15min,AgWx,beryljct,423,19JAN2021:21:00:00,26.9,12.86,27.9,27.1,26.2,27.4,25.4,53,55,51,0.257,11.5,12.3,10.7,4.143,3.6,189,7.4,4.9,0.00002,0.00005,31.7,32.4,8,0,0,.,6.19,0.00,0.00
15min,AgWx,beryljct,423,19JAN2021:21:15:00,26.8,12.85,28.5,27.8,27.6,28.2,26.9,50,52,49,0.260,11.6,12.0,10.9,1.929,1.8,155,23,3.7,-0.00006,-0.00007,31.7,32.4,9,0,0,.,6.19,0.00,0.00
15min,AgWx,beryljct,423,19JAN2021:21:30:00,27.2,12.85,29.5,28.5,28.3,28.6,27.9,50,51,49,0.262,12.0,12.2,11.7,3.529,2.7,167,14,4.3,-0.00001,0.00001,31.6,32.4,8,0,0,.,6.19,0.00,0.00
15min,AgWx,beryljct,423,19JAN2021:21:45:00,27.8,12.83,28.1,27.9,28.1,28.7,27.7,51,53,49,0.267,12.2,12.7,11.7,2.192,3.1,149,13,4.4,0.00001,0.00004,31.6,32.4,9,0,0,.,6.19,0.00,0.00
15min,AgWx,beryljct,423,19JAN2021:22:00:00,28.3,12.83,29.0,28.7,28.4,28.9,27.8,51,52,50,0.272,12.5,12.8,12.2,3.31,2.6,133,37,4.2,-0.00002,-0.00000,31.5,32.5,9,0,0,.,6.19,0.00,0.00
15min,AgWx,beryljct,423,19JAN2021:22:15:00,28.6,12.83,28.3,27.9,28.2,28.7,27.9,52,52,51,0.267,12.6,12.9,12.4,2.192,1.7,86,32,3.9,-0.00007,-0.00008,31.4,32.5,9,0,0,.,6.19,0.00,0.00
15min,AgWx,beryljct,423,19JAN2021:22:30:00,28.3,12.81,27.5,27.5,27.6,28.1,26.7,52,54,51,0.267,12.4,12.7,11.8,3.771,2.3,142,33,4.2,-0.00004,-0.00003,31.4,32.5,9,0,0,.,6.19,0.00,0.00
15min,AgWx,beryljct,423,19JAN2021:22:45:00,27.9,12.81,27.6,26.7,26.4,27.4,25.5,55,57,53,0.275,12.4,13.1,11.8,2.894,3.5,181,10,4.4,0.00001,0.00003,31.3,32.5,9,0,0,.,6.19,0.00,0.00
15min,AgWx,beryljct,423,19JAN2021:23:00:00,28.0,12.81,28.6,28.5,27.8,28.5,26.8,53,56,52,0.277,13.0,13.2,12.9,2.696,2.8,147,11,3.7,-0.00001,0.00000,31.3,32.5,8,0,0,.,6.19,0.00,0.00
15min,AgWx,beryljct,423,19JAN2021:23:15:00,28.4,12.79,29.1,28.7,28.6,28.8,28.3,52,53,52,0.279,13.3,13.5,13.2,2.674,2.4,150,14,3.7,-0.00003,-0.00003,31.2,32.5,9,0,0,.,6.19,0.00,0.00
15min,AgWx,beryljct,423,19JAN2021:23:30:00,28.8,12.78,28.4,28.4,28.4,28.7,28.1,53,53,52,0.276,13.3,13.5,13.1,2.324,2.6,163,13,3.6,-0.00002,-0.00001,31.1,32.5,9,0,0,.,6.19,0.00,0.00
15min,AgWx,beryljct,423,19JAN2021:23:45:00,28.9,12.78,28.7,28.3,28.4,28.7,28.2,53,54,52,0.281,13.5,13.7,13.1,3.025,3.1,149,10,4.6,0.00001,0.00002,31.1,32.5,8,0,0,.,6.19,0.00,0.00
15min,AgWx,bigpiney,439,19JAN2021:00:00:00,11.2,12.59,9.7,8.9,9.8,11.3,8.4,74,77,72,0.175,3.2,4.2,2.1,3.266,2.7,197,20,3.7,-0.00002,-0.00002,28.6,30.7,10,0,0,0.0,0.01,0.00,0.00
15min,AgWx,bigpiney,439,19JAN2021:00:15:00,10.7,12.58,4.5,4.2,7.1,10.6,4.2,76,79,70,0.145,0.9,4.1,-1.2,4.472,4.3,220,10,6.5,0.00000,0.00001,28.5,30.7,10,0,0,0.0,0.01,0.00,0.00
15min,AgWx,bigpiney,439,19JAN2021:00:30:00,9.5,12.57,2.7,1.9,3.3,5.0,1.8,80,82,79,0.135,-1.4,0.6,-2.9,5.13,5.0,203,6.9,5.7,-0.00000,0.00000,28.5,30.6,10,0,0,0.0,0.01,0.00,0.00
15min,AgWx,bigpiney,439,19JAN2021:00:45:00,8.2,12.55,2.9,3.3,3.1,3.8,1.9,82,83,81,0.144,-1.2,-0.3,-2.3,2.587,5.0,197,4.8,6.5,-0.00000,-0.00000,28.5,30.7,10,0,0,0.0,0.01,0.00,0.00
15min,AgWx,bigpiney,439,19JAN2021:01:00:00,7.1,12.55,4.4,3.8,2.8,3.8,1.6,82,84,80,0.149,-1.5,-0.2,-3.1,0,0.8,229,16,3.4,-0.00006,-0.00008,28.4,30.7,10,0,0,0.0,0.01,0.00,0.00
15min,AgWx,bigpiney,439,19JAN2021:01:15:00,6.2,12.55,9.8,8.3,6.4,8.3,3.8,81,84,78,0.175,1.8,3.0,-0.4,2.105,0.4,19,6.9,2.1,-0.00008,-0.00012,28.4,30.6,10,0,0,0.0,0.01,0.00,0.00
15min,AgWx,bigpiney,439,19JAN2021:01:30:00,5.5,12.54,5.9,5.5,6.5,8.4,5.5,79,80,77,0.157,1.4,3.1,0.7,3.069,1.7,298,19,3.1,-0.00004,-0.00005,28.3,30.6,10,0,0,0.0,0.01,0.00,0.00
15min,AgWx,bigpiney,439,19JAN2021:01:45:00,5.1,12.54,5.2,4.7,4.4,5.5,2.7,82,84,80,0.153,-0.1,1.0,-2.0,3.683,4.3,306,17,6.1,-0.00001,-0.00001,28.3,30.6,10,0,0,0.0,0.01,0.00,0.00
15min,AgWx,bigpiney,439,19JAN2021:02:00:00,4.8,12.51,-1.1,-1.4,2.3,4.8,-1.6,80,82,77,0.116,-2.4,0.4,-6.8,3.508,3.4,261,45,5.1,-0.00001,-0.00001,28.2,30.5,10,0,0,0.0,0.01,0.00,0.00
15min,AgWx,bigpiney,439,19JAN2021:02:15:00,4.2,12.5,-0.7,-1.0,-1.2,-0.4,-2.1,82,83,81,0.118,-5.3,-4.2,-6.3,6.27,5.5,208,8.9,8.1,-0.00000,0.00000,28.1,30.6,10,0,0,0.0,0.01,0.00,0.00
15min,AgWx,bigpiney,439,19JAN2021:02:30:00,3.4,12.5,-0.9,-1.2,-1.2,-0.7,-1.5,82,83,81,0.118,-5.3,-4.6,-5.8,3.968,5.6,206,6.7,7.3,-0.00000,0.00000,28.1,30.5,10,0,0,0.0,0.01,0.00,0.00
15min,AgWx,bigpiney,439,19JAN2021:02:45:00,2.9,12.48,0.1,-0.8,-0.9,-0.4,-1.2,82,83,81,0.121,-5.1,-4.4,-5.6,3.858,4.2,225,9.0,6.8,-0.00001,-0.00001,28.0,30.5,10,0,0,0.0,0.01,0.00,0.00
15min,AgWx,bigpiney,439,19JAN2021:03:00:00,2.4,12.48,3.8,2.8,1.2,2.8,-0.9,84,85,80,0.144,-2.7,-0.8,-5.0,1.622,2.6,260,31,5.1,-0.00002,-0.00003,27.9,30.5,10,0,0,0.0,0.01,0.00,0.00
15min,AgWx,bigpiney,439,19JAN2021:03:15:00,2.0,12.48,1.4,0.7,1.9,3.0,0.7,82,83,82,0.130,-2.2,-1.0,-3.4,1.754,1.6,293,36,3.5,-0.00004,-0.00005,27.9,30.4,10,0,0,0.0,0.01,0.00,0.00
15min,AgWx,bigpiney,439,19JAN2021:03:30:00,1.7,12.47,-0.6,-1.1,1.1,2.2,-1.2,83,85,80,0.117,-2.8,-1.4,-5.7,3.376,2.8,211,22,5.7,-0.00002,-0.00002,27.8,30.5,10,0,0,0.0,0.01,0.00,0.00
15min,AgWx,bigpiney,439,19JAN2021:03:45:00,1.5,12.45,0.4,0.8,1.0,2.4,-1.1,83,86,80,0.128,-3.0,-1.1,-5.5,3.727,3.7,224,16,5.4,-0.00001,-0.00001,27.7,30.5,10,0,0,0.0,0.01,0.00,0.00
15min,AgWx,bigpiney,439,19JAN2021:04:00:00,1.4,12.44,-1.6,-2.1,-1.3,0.8,-2.5,81,82,80,0.113,-5.7,-3.6,-7.0,4.143,3.1,211,7.9,4.4,-0.00002,-0.00002,27.7,30.5,10,0,0,0.0,0.01,0.00,0.00
15min,AgWx,bigpiney,439,19JAN2021:04:15:00,1.0,12.43,-0.6,-1.1,-1.9,-0.9,-2.7,83,84,82,0.119,-5.8,-4.7,-6.9,6.357,4.5,237,16,7.9,-0.00001,-0.00001,27.6,30.3,10,0,0,0.0,0.01,0.00,0.00
15min,AgWx,bigpiney,439,19JAN2021:04:30:00,0.9,12.42,4.5,1.8,1.0,4.6,-1.6,84,88,79,0.138,-2.8,1.8,-5.7,1.754,3.3,305,40,6.4,-0.00002,-0.00002,27.5,30.4,10,0,0,0.0,0.01,0.00,0.00
15min,AgWx,bigpiney,439,19JAN2021:04:45:00,0.8,12.42,2.1,0.8,1.1,3.1,-0.1,83,85,80,0.133,-2.9,-0.4,-4.8,2.389,1.6,269,51,3.2,-0.00004,-0.00005,27.4,30.4,10,0,0,0.0,0.01,0.00,0.00
15min,AgWx,bigpiney,439,19JAN2021:05:00:00,0.8,12.4,3.9,3.0,1.5,3.0,0.1,84,85,81,0.149,-2.1,-0.4,-4.4,1.14,1.2,259,39,3.4,-0.00005,-0.00006,27.3,30.4,10,0,0,0.0,0.01,0.00,0.00
15min,AgWx,bigpiney,439,19JAN2021:05:15:00,0.7,12.4,1.3,0.0,0.2,3.4,-1.6,83,85,79,0.130,-3.8,-0.1,-6.2,0.965,0.6,103,44,5.1,-0.00006,-0.00008,27.3,30.4,10,0,0,0.0,0.01,0.00,0.00
15min,AgWx,bigpiney,439,19JAN2021:05:30:00,0.4,12.39,-0.2,-2.2,-0.3,0.5,-2.4,83,86,81,0.111,-4.2,-2.9,-6.8,2.192,1.2,237,20,2.4,-0.00004,-0.00006,27.2,30.3,10,0,0,0.0,0.01,0.00,0.00
15min,AgWx,bigpiney,439,19JAN2021:05:45:00,0.1,12.38,1.3,0.0,0.1,1.4,-2.0,84,86,82,0.128,-3.5,-1.9,-6.2,0.548,1.5,9.6,41,3.1,-0.00004,-0.00005,27.1,30.3,10,0,0,0.0,0.01,0.00,0.00
15min,AgWx,bigpiney,439,19JAN2021:06:00:00,-0.2,12.38,1.6,0.7,0.6,0.8,0.1,85,86,85,0.132,-2.9,-2.5,-3.4,1.074,0.2,150,5.4,1.1,-0.00007,-0.00010,27.0,30.3,10,0,0,0.0,0.01,0.00,0.00
15min,AgWx,bigpiney,439,19JAN2021:06:15:00,-0.6,12.37,-0.5,-0.6,0.2,1.4,-1.1,85,86,83,0.127,-3.3,-2.0,-4.7,2.499,0.4,76,36,2.5,-0.00006,-0.00009,27.0,30.3,10,0,0,0.0,0.01,0.00,0.00
15min,AgWx,bigpiney,439,19JAN2021:06:30:00,-0.9,12.37,-0.4,-1.2,-1.1,-0.7,-1.4,84,86,83,0.119,-4.7,-4.0,-5.1,1.578,1.3,304,41,2.6,-0.00004,-0.00005,26.9,30.3,10,0,0,0.0,0.01,0.00,0.00
15min,AgWx,bigpiney,439,19JAN2021:06:45:00,-1.0,12.36,-3.9,-3.4,-1.1,-0.3,-3.4,84,85,83,0.107,-4.9,-4.0,-7.3,3.814,2.8,221,30,4.8,-0.00002,-0.00002,26.8,30.2,10,0,0,0.0,0.01,0.00,0.00
15min,AgWx,bigpiney,439,19JAN2021:07:00:00,-1.5,12.36,0.2,-0.6,-3.1,-0.6,-5.2,86,90,83,0.129,-6.2,-3.2,-8.9,1.644,1.5,186,9.8,3.7,-0.00003,-0.00004,26.7,30.2,10,0,0,0.0,0.01,0.00,0.00
15min,AgWx,bigpiney,439,19JAN2021:07:15:00,-1.7,12.35,-2.6,-2.3,-0.4,0.4,-2.3,86,88,82,0.111,-3.6,-2.3,-6.5,4.121,2.4,185,12,4.1,-0.00003,-0.00003,26.6,30.2,10,0,0,0.0,0.01,0.00,0.00
15min,AgWx,bigpiney,439,19JAN2021:07:30:00,-1.8,12.34,-3.8,-4.4,-4.0,-2.4,-5.1,82,83,81,0.102,-8.2,-6.6,-9.4,3.924,3.8,221,8.5,4.9,-0.00001,-0.00001,26.6,30.1,9,0,0,0.0,0.01,0.00,0.00
15min,AgWx,bigpiney,439,19JAN2021:07:45:00,-2.2,12.39,-1.1,-2.1,-3.7,-2.1,-4.9,83,84,81,0.114,-7.7,-5.9,-9.4,3.793,4.2,258,23,4.9,-0.00001,-0.00001,26.5,30.1,9,2,0,0.0,0.01,0.00,0.00
15min,AgWx,bigpiney,439,19JAN2021:08:00:00,-2.5,15.03,-3.2,-2.6,-2.4,-1.6,-3.1,83,84,82,0.111,-6.3,-5.4,-7.2,2.784,3.1,282,20,4.6,-0.00008,-0.00006,26.4,30.1,9,18,0,0.0,0.01,0.00,0.00
15min,AgWx,bigpiney,439,19JAN2021:08:15:00,-2.3,15.06,-1.0,-1.4,-2.6,-1.3,-3.4,83,85,82,0.118,-6.5,-4.7,-7.6,4.428,3.7,236,20,5.8,-0.00004,-0.00002,26.3,30.0,9,42,0,0.0,0.01,0.00,0.00
15min,AgWx,bigpiney,439,19JAN2021:08:30:00,-1.5,15,3.1,2.1,-0.1,2.1,-2.2,82,84,81,0.137,-4.2,-2.1,-6.6,3.025,3.7,234,15,5.1,0.00000,0.00003,26.3,30.0,9,68,0,0.0,0.01,0.00,0.00
15min,AgWx,bigpiney,439,19JAN2021:08:45:00,0.3,14.99,2.0,1.7,2.2,3.3,1.5,81,82,79,0.135,-2.3,-1.2,-3.2,3.047,3.3,336,24,5.5,0.00004,0.00007,26.2,30.0,9,94,0,0.0,0.01,0.00,0.00